Flag for U.S.A. Weather past 2 weeks in Tyler, Texas, U.S.A.

Now
48 °F

Clear.


Feels Like: 45 °F
Forecast: 46 / 77 °F
Wind: 6 mph from Southeast

Location: Tyler Pounds Field

Current Time: Mar 28, 2015 at 4:31:25 AM

Latest Report: Mar 28, 2015 at 3:53 AM


Visibility: 10 mi

Pressure: 30.11 "Hg

Humidity: 66%

Dew point: 37 °F

Location of TylerLocation

Historic Weather in Tyler — Graph

°F

Tyler temperature yesterday

Maximum temperature yesterday: 69 °F (at 1:53 PM)
Minimum temperature yesterday: 39 °F (at 4:53 AM)
Average temperature yesterday: 55 °F

Past Weeks' High & Low Weather Summary

 TemperatureHumidityPressure
High84 °F (Mar 25, 2:53 PM)97% (Mar 15, 8:53 AM)30.29 "Hg (Mar 15, 8:53 AM)
Low39 °F (Mar 27, 4:53 AM)29% (Mar 27, 1:53 PM)29.78 "Hg (Mar 26, 12:53 AM)
Average62 °F78%30.04 "Hg
* Reported Mar 13 2:53 AM — Mar 28 2:53 AM, Tyler, Weather by CustomWeather, © 2015

Note: Actual official high and low records may vary slightly from our data, if they occured in-between our weather recording intervals... More about our weather records

Advertising

Tyler weather history for previous 24 hours

 ConditionsComfort  
Time TempWeatherWind HumidityBarometerVisibility
2:53 AM
Sat, Mar 28
49 °FClear.3 mph64%30.14 "Hg10 mi
1:53 AM49 °FClear.No wind66%30.15 "Hg10 mi
12:53 AM50 °FClear.No wind63%30.16 "Hg10 mi
11:53 PM
Fri, Mar 27
51 °FClear.3 mph59%30.16 "Hg10 mi
10:53 PM52 °FClear.5 mph57%30.17 "Hg10 mi
9:53 PM55 °FClear.3 mph49%30.16 "Hg10 mi
8:53 PM55 °FClear.5 mph49%30.14 "Hg10 mi
7:53 PM59 °FSunny.3 mph39%30.12 "Hg10 mi
6:53 PM63 °FSunny.10 mph35%30.11 "Hg10 mi
5:53 PM67 °FSunny.15 mph33%30.10 "Hg10 mi
4:53 PM68 °FSunny.14 mph32%30.11 "Hg10 mi
3:53 PM68 °FSunny.14 mph35%30.11 "Hg10 mi
2:53 PM69 °FSunny.14 mph31%30.12 "Hg10 mi
1:53 PM69 °FSunny.16 mph29%30.13 "Hg10 mi
12:53 PM68 °FSunny.12 mph30%30.14 "Hg10 mi
11:53 AM67 °FSunny.16 mph32%30.14 "Hg10 mi
10:53 AM65 °FSunny.13 mph34%30.13 "Hg10 mi
9:53 AM57 °FSunny.12 mph47%30.11 "Hg10 mi
8:53 AM50 °FSunny.7 mph61%30.11 "Hg10 mi
7:53 AM45 °FClear.6 mph71%30.12 "Hg10 mi
6:53 AM41 °FClear.No wind80%30.10 "Hg10 mi
5:53 AM42 °FClear.No wind73%30.08 "Hg10 mi
4:53 AM39 °FClear.5 mph86%30.07 "Hg10 mi
Weather by CustomWeather, © 2015

See weather overviewHow to use our weather pages